sat.trackr.live / text

‹ back to catalog

BEIDOU-3 M23 (C45)

NORAD 44543 · 2019-061B

PAYLOAD ACTIVE UNKNOWN

§ Identity

Operator
Country
PRC
Launch date
2019-09-22
Launch site
XICLF
Launch vehicle
Mass (kg)
RCS (m²)

Purposes: earth_obs, nav

External: N2YO · Heavens-Above · Gunter

§ Orbital elements

Epoch: 2026-05-24T08:06:46.200672Z

Period
773.25 min
Inclination
54.3934°
Eccentricity
0.0005463
Mean motion
1.86227242 rev/d
Perigee alt
21,513.2 km
Apogee alt
21,543.7 km
Semi-major
27,906.6 km
B*
0.0000e+0
RAAN
183.5003°
Arg perigee
340.7166°
Mean anomaly
104.4121°
Rev number
4,535

§ Raw data

BEIDOU-3 M23 (C45)1 44543U 19061B   26144.33803473  .00000052  00000+0  00000+0 0  99902 44543  54.3934 183.5003 0005463 340.7166 104.4121  1.86227242 45359

JSON: /api/v1/satellites/44543 · /tle

For live sub-satellite position, see the globe view (requires WebGL).

§ Visibility from observer

Set your observer location to see the next 7 days of passes ≥ 10°. The values pass through the URL so the page stays shareable.

No JS? Fill the form by hand. The geolocation button needs JavaScript.